Skip Page Navigation
NASA JPL Caltech
NASA Logo - Jet Propulsion Laboratory + View the NASA Portal
+ Near-Earth Object (NEO) Program
Search JPL
JPL Home Earth Solar System Stars & Galaxies Technology
JPL Solar System Dynamics
BODIES ORBITS EPHEMERIDES TOOLS PHYSICAL DATA DISCOVERY FAQ SITE MAP
JPL Small-Body Database Browser
Search: [ help ]  
79117 Brydonejack (1988 QC1)
Classification: Main-belt Asteroid          SPK-ID: 2079117
Ephemeris | Orbit Diagram | Orbital Elements | Physical Parameters | Discovery Circumstances ]

[ hide orbit diagram ]
Orbit Diagram
Note: Make sure you have Java enabled on your browser to see the applet. This applet is provided as a 3D orbit visualization tool. The applet was implemented using 2-body methods, and hence should not be used for determining accurate long-term trajectories (over several years or decades) or planetary encounter circumstances. For accurate long-term ephemerides, please instead use our Horizons system.
Orbit Viewer

Additional Notes: the orbits shown in the applet are color coded. The planets are white lines, and the asteroid/comet is a blue line. The bright white line indicates the portion of the orbit that is above the ecliptic plane, and the darker portion is below the ecliptic plane. Likewise for the asteroid/comet orbit, the light blue indicates the portion above the ecliptic plane, and the dark blue the portion below the ecliptic plane.

Orbit Viewer applet originally written and kindly provided by Osamu Ajiki (AstroArts), and further modified by Ron Baalke (JPL).


Orbital Elements at Epoch 2456400.5 (2013-Apr-18.0) TDB
Reference: JPL 1 (heliocentric ecliptic J2000)
 Element Value Uncertainty (1-sigma)   Units 
e .2543583078090358 6.9261e-08  
a 2.243789993504416 1.6642e-08 AU
q 1.673063367677785 1.5639e-07 AU
i 3.378754931556681 1.0526e-05 deg
node 194.3832115054941 0.00012436 deg
peri 124.6230878426849 0.00012682 deg
M 132.7078227023866 2.9604e-05 deg
tp 2455947.950842897252
(2012-Jan-21.45084290)
9.7841e-05 JED
period 1227.641997581046
3.36
1.3658e-05
3.739e-08
d
yr
n .2932450997190926 3.2624e-09 deg/d
Q 2.814516619331047 2.0875e-08 AU
  Orbit Determination Parameters
   # obs. used (total)      390  
   data-arc span      9002 days (24.65 yr)  
   first obs. used      1988-08-16  
   last obs. used      2013-04-09  
   planetary ephem.      DE405  
   SB-pert. ephem.      SB405-CPV-2  
   condition code      0  
   fit RMS      .62307  
   data source      ORB  
   producer      Otto Matic  
   solution date      2013-Apr-29 17:32:38  

Additional Information
 Earth MOID = .662926 AU 
 T_jup = 3.587 
[ show covariance matrix ]

Ephemeris | Orbit Diagram | Orbital Elements | Physical Parameters | Discovery Circumstances ]

Physical Parameter Table
Parameter Symbol Value Units Sigma Reference Notes
absolute magnitude H 15.851 mag .54609 1 autocmod 2.5c

79117 Brydonejack           Discovered 1988 Aug. 16 by C. S. Shoemaker and E. M. Shoemaker at Palomar.
William Brydone Jack (1817-1886) was a pioneer of Canadian astronomy. He built British North America's first astronomical observatory in 1851. Jack practised public outreach in astronomy. He determined Canada's first longitude readings, delivered the first engineering lecture and created the first engineering chair in Canada.
NOTE: some special characters may not display properly (any characters within {} are an attempt to place the proper accent above a character)
Reference: 20091004/MPCPages.arcLast Updated: 2009-10-06

Alternate Designations
 1988 QC1 = 1998 ME38 
Ephemeris | Orbit Diagram | Orbital Elements | Physical Parameters | Discovery Circumstances ]
ABOUT SSD CREDITS/AWARDS PRIVACY/COPYRIGHT GLOSSARY LINKS
FirstGov 2013-Jun-19 15:38 UT
(server date/time)  
NASA Home Page
Site Manager:   Donald K. Yeomans
Webmaster  Alan B. Chamberlin